Temp
71 64 62 68 72 74 74 73 71 76 83 78 77 79 84 86 87 87 89 90 89 90 95 98 98 91 89 88 85 83 82 83 83 82 83 83 83 83 85 86 85 83 81 80
66 60 70 75 76 73 72 70 70 77 82 79 78 77 83 86 85 87 88 89 90 91 94 95 94 87 85 83 82 81 81 80 81 83 84 86 85 87 86 87 85 83 81 77
60 67 74 72 72 70 71 68 69 70 77 80 77 73 76 84 87 88 88 90 91 91 91 93 90 85 84 82 81 80 80 78 81 84 84 83 83 83 82 83 82 81 78 77
64 71 71 70 69 72 65 76 74 71 69 63 77 61 72 79 81 84 86 89 90 91 93 95 89 84 82 82 82 81 79 79 82 81 81 79 81 81 83 83 84 82 79 77
60 65 66 66 69 75 70 78 75 73 68 67 68 64 70 78 76 80 85 88 89 92 94 94 88 85 85 83 81 80 79 79 79 80 81 80 79 83 83 83 79 78 76 76
65 74 72 70 75 77 79 74 74 73 69 58 65 65 66 72 76 80 85 88 90 93 94 92 88 85 83 84 82 80 79 78 79 80 80 78 78 79 79 79 78 75 72 72
59 63 71 74 68 74 75 68 57 55 56 56 69 65 68 76 81 82 83 87 91 94 90 87 84 83 82 81 81 80 79 77 79 79 79 79 78 77 76 76 73 73 71 72
51 48 64 72 69 67 69 68 59 47 52 58 70 60 69 82 85 86 87 90 92 88 88 85 84 83 83 81 81 81 79 78 79 80 79 79 79 80 79 77 75 73 75 72
51 53 70 71 74 74 68 65 74 64 68 63 69 73 79 81 82 83 85 87 88 87 85 84 85 84 83 81 81 81 80 80 80 80 79 79 79 78 78 76 75 75 75 76
52 47 65 70 73 74 71 77 62 66 51 52 64 66 69 74 78 82 83 85 87 86 85 85 84 83 83 83 82 82 82 80 81 81 80 80 76 79 80 76 74 75 75 79
54 48 55 66 64 64 67 68 68 69 67 58 55 63 80 78 81 82 85 87 87 85 85 85 85 85 84 83 83 81 82 81 81 81 81 79 76 79 79 76 76 75 76 77
57 46 45 56 72 74 72 69 69 62 58 66 65 65 82 81 84 86 87 88 89 86 86 86 86 85 84 83 83 81 82 82 82 82 82 80 77 79 75 75 75 76 76 79
50 47 43 47 59 70 67 71 72 69 70 62 61 66 83 83 83 88 87 88 85 85 86 86 85 85 84 83 83 83 82 83 83 83 82 79 77 76 74 74 75 76 75 79
45 46 44 40 53 65 62 68 72 69 62 65 66 69 76 80 81 84 83 83 84 85 84 85 84 85 85 84 84 84 83 84 84 83 82 79 75 76 76 76 75 73 75 76
41 43 49 49 49 56 67 67 70 67 69 65 69 69 77 81 83 84 83 84 84 85 85 84 84 85 85 84 84 84 84 84 84 83 81 79 75 79 76 77 76 75 76 75
43 41 50 47 47 54 61 68 70 71 70 73 74 70 84 84 87 85 84 84 83 84 86 85 85 85 84 84 84 84 84 83 83 82 81 81 75 77 75 75 76 74 75 73
45 43 49 37 47 52 53 65 69 71 74 73 67 72 82 81 82 83 84 85 85 85 87 86 85 85 84 84 84 83 84 84 82 82 82 81 76 75 73 76 75 72 71 70
48 42 48 41 44 36 61 73 73 72 73 76 74 76 82 82 85 88 91 86 86 88 88 87 87 86 85 86 86 85 85 84 83 83 82 83 82 76 74 73 73 71 69 66
55 46 38 38 40 54 57 67 67 68 67 75 75 79 82 85 85 82 85 87 89 90 91 89 89 87 86 85 86 85 84 84 84 83 83 83 84 78 74 74 71 71 73 70
58 54 42 43 38 38 46 65 70 70 58 67 70 72 73 76 72 71 78 83 86 93 93 90 90 88 86 85 85 83 84 83 83 85 85 85 85 82 80 77 71 72 72 70
48 47 41 43 45 48 58 67 69 55 49 65 69 69 69 69 75 75 79 81 85 90 93 92 90 87 85 86 85 83 84 83 86 87 87 85 84 81 79 77 72 72 73 71
43 39 45 47 44 36 60 64 57 58 65 67 68 69 68 71 74 76 79 81 84 87 92 92 89 87 86 87 85 83 82 86 88 88 86 84 82 83 80 76 74 72 70 69
39 45 45 49 43 51 59 59 63 65 64 67 69 70 71 72 74 77 78 81 84 87 91 93 90 87 86 86 86 83 84 87 87 86 84 83 81 82 79 77 75 71 74 77
41 50 49 52 47 53 59 63 64 66 65 68 71 71 73 72 76 77 80 82 85 88 90 92 90 87 84 86 86 86 87 88 87 84 83 82 80 80 79 80 80 81 79 80
42 46 48 46 47 55 59 61 63 65 68 68 71 72 73 74 76 78 80 82 85 88 90 92 90 88 86 87 87 88 88 88 85 83 82 81 81 79 79 81 80 83 82 76
49 45 40 38 49 51 54 63 64 64 64 67 68 70 74 76 75 79 80 83 84 86 90 91 90 89 89 88 88 89 90 88 85 82 82 82 83 80 81 81 79 44 50 50
MSLP
1004.52 1004.54 1001.72 998.79 999.15 998.64 998.68 998.37 997.34 997.08 996.96 997.26 996.43 995.69 995.51 996.62 996.81 996.23 995.92 995.85 996.29 996.38 996.33 996.26 996.42 997.81 998.63 999.23 1000.04 1000.76 1001.29 1001.68 1002.61 1003.27 1003.63 1003.79 1004.09 1004.58 1004.73 1004.97 1005.35 1005.84 1006.15 1006.41
1003.55 1001.33 997.62 1000.21 999.52 999.20 998.87 998.09 996.85 996.89 996.55 996.25 995.72 995.22 995.33 995.34 995.69 995.74 995.29 994.89 995.06 995.69 995.42 995.76 996.29 997.94 998.89 999.72 1000.39 1000.96 1001.34 1001.93 1002.63 1003.00 1003.20 1003.18 1003.65 1003.79 1004.17 1004.42 1004.92 1005.58 1005.98 1006.40
1001.54 997.74 1000.81 999.37 998.56 998.50 997.52 997.10 997.03 996.71 996.82 996.11 995.74 994.85 994.55 994.70 994.72 995.00 995.12 994.85 994.77 994.66 994.95 995.22 996.12 997.94 999.08 999.96 1000.60 1001.05 1001.47 1002.27 1002.49 1002.69 1003.11 1003.65 1003.91 1004.12 1004.34 1004.55 1004.92 1005.25 1005.91 1006.37
1000.88 999.75 998.71 998.42 997.52 997.21 995.94 996.71 997.22 997.12 996.95 995.80 996.13 994.01 993.21 993.98 993.87 993.92 993.74 993.44 993.62 994.03 994.04 994.35 995.91 997.85 999.15 999.94 1000.68 1001.08 1001.76 1002.32 1002.51 1003.05 1003.20 1003.52 1003.38 1003.39 1003.42 1004.00 1004.22 1004.96 1005.68 1006.05
998.91 999.08 997.92 997.06 995.20 996.88 994.33 996.81 996.57 996.90 996.94 996.59 995.38 995.02 992.00 993.75 992.94 992.76 992.78 992.81 993.06 993.20 993.22 993.74 995.90 997.70 998.93 999.95 1000.58 1001.23 1001.93 1002.35 1002.84 1003.13 1003.06 1003.55 1003.53 1003.37 1003.79 1004.07 1004.63 1005.11 1005.74 1005.96
999.43 998.77 997.77 996.07 996.16 995.91 996.13 996.40 996.46 996.36 996.32 995.15 994.33 994.85 991.62 992.48 991.95 991.95 992.08 991.99 991.95 992.15 992.59 994.14 996.02 997.73 998.89 999.76 1000.55 1001.38 1002.02 1002.45 1002.83 1003.07 1003.29 1003.60 1003.65 1003.86 1003.97 1004.20 1004.54 1005.31 1005.78 1005.93
999.99 998.45 997.13 996.41 995.92 995.43 995.24 995.50 995.26 995.31 994.29 991.58 993.98 993.55 991.13 991.53 991.50 991.34 991.51 991.39 991.14 991.32 992.89 994.73 996.33 997.57 998.69 999.50 1000.38 1001.31 1001.93 1002.40 1002.74 1003.10 1003.44 1003.72 1003.99 1004.32 1004.44 1004.59 1005.03 1005.18 1005.46 1005.66
999.43 998.29 996.39 994.74 994.06 993.47 993.59 993.77 992.86 991.89 991.98 992.11 992.55 991.36 990.34 990.41 990.36 990.63 990.89 990.47 990.87 992.11 993.47 994.94 996.31 997.37 998.46 999.41 1000.22 1000.93 1001.67 1002.13 1002.60 1002.98 1003.36 1003.66 1003.95 1003.96 1004.21 1004.58 1005.01 1005.19 1005.14 1005.56
999.88 997.26 995.62 994.92 994.01 993.37 992.47 992.25 991.74 992.63 991.58 990.87 989.81 988.94 989.38 989.89 989.65 989.95 989.93 990.35 991.06 992.31 993.73 994.99 996.13 997.32 998.35 999.28 1000.10 1000.73 1001.32 1001.88 1002.41 1002.87 1003.28 1003.61 1003.87 1004.14 1004.20 1004.52 1004.99 1005.05 1005.27 1005.37
1001.53 998.41 995.57 993.96 994.43 993.05 991.81 991.73 992.96 992.36 991.03 989.47 989.03 988.59 987.87 988.67 988.53 988.89 989.41 989.67 990.71 992.44 993.86 994.94 996.11 997.19 998.33 999.25 1000.00 1000.61 1001.20 1001.73 1002.29 1002.72 1003.18 1003.35 1003.94 1004.07 1004.06 1004.66 1005.03 1005.04 1005.21 1004.80
1002.89 1000.60 996.22 994.31 992.03 991.73 991.05 990.45 991.18 991.58 990.61 989.60 989.04 988.18 987.54 988.02 988.39 987.99 988.31 989.19 990.40 992.25 993.62 994.78 995.95 997.25 998.25 999.15 999.79 1000.50 1000.98 1001.59 1002.16 1002.56 1002.96 1003.32 1003.76 1003.86 1004.07 1004.72 1004.88 1005.19 1005.07 1005.14
1002.59 1001.57 997.67 994.15 992.04 991.87 991.06 990.21 990.61 989.74 989.82 989.60 988.88 988.27 988.41 988.47 988.32 987.74 988.00 988.93 990.16 992.23 993.36 994.58 995.83 996.97 998.00 998.86 999.66 1000.33 1000.80 1001.29 1001.97 1002.37 1002.81 1003.18 1003.81 1003.70 1004.44 1004.68 1005.01 1005.23 1005.22 1004.97
1004.44 1001.65 998.39 995.70 994.02 991.60 990.10 989.87 989.74 990.48 989.61 989.12 988.72 987.72 988.05 988.40 988.22 987.80 988.06 988.98 990.85 992.25 993.30 994.47 995.67 996.62 997.61 998.53 999.37 1000.02 1000.65 1001.12 1001.66 1002.15 1002.70 1003.22 1003.78 1004.25 1004.56 1004.80 1004.98 1005.18 1005.37 1004.88
1006.43 1003.20 999.76 997.05 994.46 991.93 990.45 989.22 988.94 989.54 989.16 988.45 988.40 988.16 988.14 988.15 988.19 988.53 989.39 990.27 991.21 992.12 993.26 994.22 995.42 996.32 997.31 998.23 998.98 999.75 1000.36 1000.92 1001.48 1001.97 1002.47 1003.09 1004.01 1004.29 1004.48 1004.84 1005.07 1005.36 1005.50 1005.36
1006.26 1002.66 1000.01 998.92 997.23 993.59 990.36 989.12 988.72 988.45 989.05 987.99 988.00 988.00 987.84 987.85 988.26 988.90 990.00 990.63 991.37 992.16 993.14 994.10 995.11 995.99 996.99 997.98 998.70 999.48 1000.10 1000.73 1001.36 1001.83 1002.42 1003.06 1004.03 1004.05 1004.59 1004.75 1005.07 1005.42 1005.63 1005.74
1005.45 1002.14 1000.34 999.37 998.88 995.53 990.57 989.42 988.68 988.58 989.08 988.05 987.88 988.37 987.92 988.39 988.79 989.38 989.97 990.69 991.41 992.06 992.86 993.88 994.89 995.75 996.71 997.66 998.38 999.25 999.86 1000.53 1001.28 1001.79 1002.30 1003.00 1003.75 1004.13 1004.57 1004.91 1005.01 1005.70 1005.70 1006.10
1004.10 1002.40 1000.20 1000.14 998.92 995.73 991.72 989.54 988.48 988.57 988.86 988.89 988.96 989.36 989.07 989.31 989.36 989.70 989.90 990.53 991.16 991.90 992.59 993.58 994.52 995.51 996.46 997.39 998.17 999.07 999.71 1000.50 1001.19 1001.73 1002.24 1002.87 1003.81 1004.28 1004.80 1005.04 1005.21 1005.91 1006.18 1006.58
1002.96 1002.61 1000.82 999.44 998.92 995.75 991.98 990.56 989.61 989.18 989.68 990.09 990.30 990.71 989.81 989.93 989.77 989.64 989.72 990.49 990.94 991.55 992.32 993.45 994.36 995.31 996.40 997.24 998.03 998.93 999.63 1000.35 1000.95 1001.48 1002.06 1002.54 1003.04 1004.09 1004.62 1005.23 1005.53 1006.17 1006.55 1006.90
1002.36 1002.36 1001.65 1000.08 998.79 994.36 993.71 991.48 991.05 990.34 990.74 991.46 991.19 991.24 990.90 990.73 990.59 990.93 991.51 991.12 990.91 991.29 992.07 993.15 994.18 995.26 996.27 997.09 997.85 998.73 999.45 1000.11 1000.60 1001.10 1001.82 1002.28 1002.68 1003.75 1004.48 1004.97 1005.66 1006.09 1006.31 1006.74
1001.33 1001.83 1002.17 1000.18 998.42 996.56 995.78 993.68 993.18 992.44 992.89 994.58 993.99 993.22 993.09 992.70 992.05 993.30 993.48 992.64 991.66 990.97 991.68 992.84 993.97 995.17 996.09 996.94 997.75 998.52 999.15 999.83 1000.23 1000.76 1001.50 1002.09 1002.49 1003.33 1003.91 1004.75 1005.64 1006.11 1006.43 1006.87
1001.21 1001.51 1001.26 1000.01 997.87 997.58 997.05 995.34 994.31 994.29 996.79 996.24 995.72 995.39 995.15 994.80 993.93 994.65 994.37 993.60 992.85 991.66 991.45 992.66 993.73 994.82 995.97 996.85 997.66 998.25 998.85 999.50 1000.02 1000.54 1001.28 1002.01 1002.63 1003.43 1004.11 1004.97 1005.57 1006.10 1006.44 1006.95
1002.59 1002.03 1000.72 1000.41 999.46 999.26 998.34 996.59 996.00 997.82 997.53 997.24 996.90 996.60 996.51 996.21 995.57 995.05 994.52 993.87 993.41 992.31 991.55 992.43 993.49 994.59 995.87 996.78 997.54 997.98 998.55 999.22 999.80 1000.36 1001.09 1001.93 1002.84 1003.35 1004.31 1005.05 1005.47 1005.95 1006.53 1007.11
1004.55 1003.41 1001.77 1000.71 1001.01 1000.98 999.82 999.23 999.23 998.87 998.43 998.01 997.78 997.57 997.02 996.46 995.63 994.96 994.38 993.76 993.21 992.64 991.71 992.19 993.14 994.24 995.53 996.51 997.32 997.70 998.32 998.96 999.57 1000.17 1000.97 1001.95 1002.91 1003.36 1004.38 1005.00 1005.50 1006.14 1006.34 1006.21
1005.53 1004.22 1002.60 1001.52 1002.20 1001.06 1000.41 1000.24 1000.15 999.93 999.44 999.17 998.37 997.79 997.07 996.47 995.59 994.78 994.06 993.40 992.93 992.42 991.80 992.01 992.81 993.71 995.05 996.07 996.93 997.52 998.17 998.68 999.31 1000.02 1000.92 1001.88 1002.76 1003.38 1004.29 1004.89 1005.18 1005.08 1005.32 1005.56
1006.46 1005.13 1003.75 1003.46 1003.22 1001.43 1001.35 1001.34 1000.83 1000.34 999.91 999.65 998.63 997.87 997.07 996.47 995.42 994.65 993.98 993.38 992.80 992.14 991.78 991.84 992.36 993.19 994.51 995.59 996.40 997.16 997.86 998.39 999.01 999.94 1000.76 1001.66 1002.44 1003.30 1004.04 1004.50 1005.26 1004.98 1005.05 1005.68
1006.02 1005.51 1005.05 1004.66 1004.20 1003.20 1002.12 1001.30 1001.18 1000.55 1000.17 999.86 999.00 997.89 997.03 996.25 995.65 994.76 993.98 993.26 992.77 992.19 991.63 991.66 992.15 992.79 993.78 994.85 995.63 996.49 997.29 998.05 998.78 999.67 1000.44 1001.17 1001.74 1002.94 1003.36 1004.05 1005.09 1006.01 1006.22 1006.28
Wind_Speed
24 20 28 42 37 34 34 25 31 32 28 30 33 34 23 22 27 29 25 19 21 23 23 18 12 2 5 4 8 11 13 11 11 11 11 10 9 7 7 6 6 7 6 9
25 31 46 27 33 33 33 32 32 29 27 27 27 29 29 23 25 28 28 22 21 24 20 15 1 2 4 7 10 12 13 14 12 10 8 7 7 7 6 5 4 4 7 5
30 41 25 34 32 31 33 32 29 31 24 25 27 29 31 30 28 26 28 30 27 21 18 17 8 5 7 9 11 13 14 15 12 10 6 4 4 1 5 6 7 8 6 5
28 34 34 33 36 35 34 29 28 26 23 21 22 23 30 23 25 24 28 25 18 19 20 15 10 8 9 10 12 14 15 15 11 11 9 8 6 6 2 1 3 0 4 4
30 30 36 37 42 31 36 24 27 25 20 25 28 20 19 21 24 23 23 20 20 21 17 10 10 11 12 12 13 14 15 14 12 10 8 7 7 4 3 2 1 4 3 6
31 28 30 39 34 30 28 28 27 21 20 22 25 22 23 23 26 20 22 21 18 19 12 9 11 13 13 14 15 15 15 13 12 9 7 5 4 2 3 2 3 3 3 5
31 30 29 32 31 36 29 27 18 20 22 26 19 22 22 23 21 22 22 22 14 10 13 13 15 16 16 17 17 15 15 13 12 10 7 6 4 3 4 5 2 3 3 4
24 28 34 28 30 35 34 30 18 32 14 20 25 26 22 22 24 22 21 9 9 11 13 14 17 17 18 18 17 16 14 13 12 10 7 5 5 6 5 0 2 2 3 3
20 30 29 34 25 27 39 30 32 24 23 21 17 18 18 18 16 13 15 17 14 13 14 17 18 17 18 17 16 15 14 12 11 9 6 5 4 3 3 2 2 2 2 6
19 13 33 28 31 30 34 26 25 23 29 24 16 14 8 6 10 15 15 15 16 15 15 17 18 18 16 16 14 14 13 12 11 9 7 6 3 4 2 2 2 4 4 4
18 8 19 35 34 30 26 25 31 21 20 17 17 10 8 5 8 12 15 16 19 18 17 18 18 17 17 16 14 13 11 11 10 8 7 5 4 3 3 1 2 3 4 4
13 6 18 18 22 30 30 29 30 18 26 17 10 7 7 3 13 10 13 17 18 18 18 19 19 18 17 16 14 12 11 11 10 8 7 5 3 1 3 2 5 4 6 8
8 10 13 7 19 29 29 33 26 27 15 22 13 9 6 3 5 9 8 17 17 18 20 19 19 17 17 15 14 13 11 10 10 8 7 5 4 4 4 3 3 4 4 6
12 14 18 7 11 21 32 33 28 27 16 17 21 13 9 11 12 9 9 12 17 19 20 19 18 17 16 15 14 13 11 11 9 8 7 7 7 4 5 4 5 5 6 4
6 19 25 9 20 28 30 26 29 27 23 18 20 14 9 10 11 10 12 14 18 19 20 19 18 17 17 15 13 13 12 11 9 8 7 7 7 5 8 4 6 7 5 2
6 13 19 13 17 32 11 27 28 25 29 19 12 16 11 5 10 7 9 15 17 18 19 19 19 19 18 16 14 13 12 12 10 8 8 7 8 4 6 5 9 7 8 7
7 10 9 7 15 24 13 18 19 20 26 18 14 6 8 7 1 4 9 14 17 17 18 19 19 18 16 16 14 13 13 12 11 9 9 8 9 6 7 6 7 7 7 5
12 10 8 3 10 7 10 15 12 19 18 18 13 14 9 6 4 7 9 13 17 17 16 17 16 17 16 16 15 13 13 13 12 10 10 9 9 10 6 8 7 9 7 8
13 8 5 6 13 6 5 6 11 15 14 3 8 17 11 13 8 10 16 11 14 14 15 15 16 16 16 16 16 14 14 13 13 11 11 10 9 12 9 10 8 9 7 7
13 9 4 5 8 9 6 8 5 4 12 10 7 6 10 11 5 9 12 15 16 16 14 15 17 16 17 16 17 15 14 14 13 12 11 10 9 8 7 6 9 8 7 7
9 6 8 8 8 7 9 12 2 11 8 6 7 6 5 8 12 10 11 10 10 15 16 16 17 16 16 17 17 16 15 14 13 13 12 11 9 9 9 6 8 8 8 7
5 4 4 5 3 1 16 3 4 7 5 8 7 8 7 9 12 11 10 9 7 13 12 17 16 16 16 17 17 16 15 14 14 13 13 12 11 9 9 7 6 7 7 8
3 4 6 7 5 7 8 13 11 10 8 11 9 9 8 8 9 9 8 8 7 10 9 15 16 17 17 17 16 17 16 15 15 14 13 12 12 9 10 8 9 6 8 8
5 8 3 7 12 5 10 11 12 10 9 10 10 10 10 9 9 7 7 6 7 9 10 14 17 18 18 18 17 16 16 16 16 15 14 13 12 10 10 8 8 9 7 6
4 11 10 4 8 4 13 10 12 13 11 13 14 12 12 11 11 9 8 7 7 7 10 13 16 17 19 19 18 17 17 17 15 15 14 13 11 11 11 9 6 6 3 3
1 5 4 3 10 13 12 13 11 11 11 14 15 14 13 11 11 12 9 7 6 8 10 13 16 17 19 20 19 19 19 18 16 14 13 12 11 11 11 10 8 12 10 10
Wind_Direction
201 210 218 221 220 236 242 242 247 247 245 241 258 263 255 257 263 262 258 253 264 281 284 288 273 328 274 216 180 184 188 166 166 173 187 188 196 200 210 219 222 235 241 255
214 216 222 223 231 229 244 251 253 260 261 259 253 257 269 255 260 268 272 267 263 273 277 278 90 161 200 184 179 179 171 157 180 178 201 190 201 198 208 213 199 239 244 226
221 226 229 228 232 234 234 234 243 252 259 259 262 267 260 259 262 263 270 273 272 274 266 265 140 158 169 178 173 166 158 164 183 171 162 161 140 271 199 205 215 194 226 231
233 237 236 227 233 228 235 228 240 251 257 257 251 265 256 263 264 259 262 258 256 252 262 242 138 159 178 166 163 152 156 167 169 163 164 183 205 218 149 346 331 332 215 250
240 229 230 240 226 226 242 234 236 238 249 260 253 258 272 275 268 264 253 259 261 253 255 177 162 164 164 156 154 150 155 166 150 187 169 178 242 164 225 256 232 243 278 243
245 243 233 234 243 231 241 234 243 237 237 244 245 251 263 262 265 259 256 257 256 241 217 137 151 153 151 154 149 151 156 153 162 166 164 219 133 300 302 228 333 290 252 229
242 246 248 236 225 240 224 223 223 229 228 247 247 244 263 269 271 262 257 254 255 230 141 154 155 160 158 152 150 152 158 156 159 159 162 164 171 204 247 277 314 264 215 208
224 227 231 228 227 218 224 213 219 218 217 237 230 242 255 265 250 254 240 214 233 148 153 157 163 154 156 152 154 160 160 157 161 161 163 163 172 212 232 154 256 268 215 171
256 230 229 226 226 230 214 214 220 250 230 242 255 237 228 248 246 241 238 233 222 167 156 161 157 159 154 154 160 158 159 158 163 163 155 174 181 246 331 32 255 208 194 173
274 269 226 228 222 236 234 209 211 226 240 249 229 253 257 214 223 216 225 210 181 165 165 161 155 155 155 155 156 158 163 158 164 166 164 171 179 217 250 78 187 173 202 180
289 276 262 222 202 216 213 210 210 221 230 235 253 258 227 263 256 266 198 184 171 164 166 158 155 156 154 155 156 159 163 163 161 168 172 148 149 214 61 112 174 156 168 181
257 260 261 234 216 214 214 218 201 221 215 240 294 194 96 230 226 198 166 162 151 163 162 159 157 158 155 160 154 160 163 163 163 169 164 156 163 146 82 190 101 160 171 192
354 234 259 218 231 205 223 208 209 220 227 212 234 196 130 240 202 203 131 133 146 163 161 157 158 160 159 160 160 162 163 164 165 167 161 153 155 88 134 110 126 143 194 184
299 266 263 247 270 197 215 206 206 199 219 188 226 115 178 172 152 110 123 143 161 164 160 159 162 162 163 159 164 160 167 158 160 169 172 144 117 152 147 121 127 154 156 224
274 251 242 239 303 305 199 215 205 198 209 225 196 227 174 123 86 102 134 159 156 161 168 162 168 164 162 163 162 161 167 158 156 163 164 138 131 180 121 138 129 119 131 130
254 277 260 246 263 282 252 210 200 209 204 228 164 197 220 51 125 139 152 169 170 168 174 168 169 165 165 165 166 162 164 156 159 159 154 152 119 143 116 147 134 133 139 136
280 302 252 221 236 269 232 202 209 195 199 215 221 191 213 222 252 193 139 183 178 176 176 172 171 168 165 165 165 165 162 159 159 163 145 153 138 142 146 154 125 128 112 138
267 291 293 220 251 216 197 207 234 202 199 213 218 231 235 240 168 209 124 180 183 177 178 173 172 168 165 162 165 164 161 164 166 168 153 161 159 132 151 137 141 124 130 115
240 273 299 178 209 77 180 64 189 208 184 192 245 219 229 218 231 50 10 343 188 183 172 173 171 167 166 164 160 166 166 169 171 167 162 164 154 135 161 145 146 145 160 143
217 219 235 245 229 201 326 8 28 310 126 36 7 357 1 340 203 64 358 345 354 183 169 167 168 169 168 167 163 169 170 175 177 166 166 165 154 147 140 128 127 139 143 130
202 214 251 278 251 100 10 338 214 212 74 16 16 19 345 299 321 345 329 325 332 314 163 165 169 174 172 169 168 175 172 180 177 164 162 162 151 147 128 144 128 148 132 120
185 232 231 234 255 124 341 18 8 46 60 32 20 18 340 316 300 304 301 292 288 292 176 169 170 171 173 173 175 179 175 179 176 166 164 160 147 167 139 155 136 124 116 119
266 343 310 1 80 191 30 61 42 22 14 22 4 1 344 305 296 302 293 279 259 260 214 176 172 169 175 178 182 182 176 177 175 169 164 158 156 163 145 163 141 134 180 154
202 295 266 306 355 339 64 33 26 12 2 355 343 354 343 337 315 304 292 279 249 222 217 180 175 173 177 181 185 187 177 179 174 170 167 161 168 163 160 167 178 162 187 160
325 316 337 63 334 55 21 3 352 351 355 352 340 349 343 338 342 336 318 290 261 238 208 191 187 177 179 180 185 187 179 182 173 172 171 169 174 178 167 188 181 184 155 98
28 342 15 315 325 322 327 325 320 330 341 338 336 335 339 347 343 338 331 324 285 248 231 200 193 183 180 182 185 185 182 183 173 174 176 177 176 182 176 181 163 54 66 71